Overview Statistics Trail Chart Weather Telemetry Raw packets
 

This is the latest recevied weather packets stored in our database for station/object KW4UJ. If no packets are shown the sender has not sent any weather packets the latest 10 day(s).

<< 84 85 86 87 88 89 90 >>
Time Temp. Humidity Pressure Rain* Wind** Luminosity Snow
1788012140 23.33° C 57% 1024.1 hPa 0 mm - 70 W/m² -
1788011839 22.78° C 57% 1024 hPa 0 mm - 79 W/m² -
1788011538 23.33° C 57% 1024.1 hPa 0 mm - 74 W/m² -
1788011234 22.78° C 58% 1024.1 hPa 0 mm - 76 W/m² -
1788010933 22.78° C 57% 1024.1 hPa 0 mm - 84 W/m² -
1788010627 22.78° C 58% 1024.1 hPa 0 mm - 91 W/m² -
1788010327 23.33° C 58% 1024.1 hPa 0 mm - 120 W/m² -
1788010027 23.33° C 56% 1024 hPa 0 mm - 275 W/m² -
1788009727 23.33° C 58% 1023.9 hPa 0 mm - 214 W/m² -
1788009425 22.78° C 59% 1024 hPa 0 mm - 205 W/m² -
1788009120 22.78° C 61% 1024 hPa 0 mm - 219 W/m² -
1788008815 22.78° C 62% 1023.9 hPa 0 mm - 97 W/m² -
1788008515 22.22° C 63% 1024 hPa 0 mm - 200 W/m² -
1788008212 22.22° C 65% 1024 hPa 0 mm - 178 W/m² -
1788007910 21.67° C 65% 1023.7 hPa 0 mm - 119 W/m² -
1788007610 21.67° C 67% 1023.7 hPa 0 mm - 142 W/m² -
1788007310 21.11° C 69% 1023.9 hPa 0 mm - 73 W/m² -
1788007009 21.11° C 71% 1023.8 hPa 0 mm - 58 W/m² -
1788006704 21.11° C 71% 1023.7 hPa 0 mm - 52 W/m² -
1788006399 21.11° C 71% 1023.6 hPa 0 mm - 49 W/m² -
1788006098 20.56° C 74% 1023.7 hPa 0 mm - 64 W/m² -
1788005798 20.56° C 76% 1023.9 hPa 0 mm - 48 W/m² -
1788005493 20.56° C 78% 1023.5 hPa 0 mm - 47 W/m² -
1788005192 20.56° C 78% 1023.8 hPa 0 mm - 45 W/m² -
1788004886 20° C 79% 1023.6 hPa 0 mm - 43 W/m² -

* Rain latest hour (hover to see other rain measurements)
** Current wind speed in m/s (hover to see current wind gust speed)